Tucson, Arizona, United States (85701)
Lat: 32.22N, Lon: 110.93W
Wx Zone: AZZ504
Local Info
Past Weather Observations for Tuesday, February 24, 2015

NOTE: This archive is for the closest National Weather Service station to Tucson. Information may differ from the station used for current weather conditions.

Click here for Long-term Archive

Time Weather Temperature Dewpoint Humidity Pressure Winds Precip Visibility
23:58
Partly Cloudy
45°F / 7°C 36°F / 2°C 71% 30.15 in
(1021 mb)
SSE 5.8 mph
(SSE 9 kph)
- 10SM
22:58
Partly Cloudy
48°F / 9°C 36°F / 2°C 62% 30.15 in
(1021 mb)
SSE 1.2 mph
(SSE 2 kph)
- 10SM
21:58
Clear
46°F / 8°C 36°F / 2°C 66% 30.12 in
(1020 mb)
WNW 2.3 mph
(WNW 4 kph)
- 10SM
19:58
Partly Cloudy
50°F / 10°C 36°F / 2°C 58% 30.12 in
(1020 mb)
WNW 4.6 mph
(WNW 7 kph)
- 10SM
18:58
Clear
52°F / 11°C 34°F / 1°C 50% 30.09 in
(1019 mb)
NW 8.1 mph
(NW 13 kph)
- 10SM
17:58
Clear
54°F / 12°C 32°F / 0°C 44% 30.06 in
(1018 mb)
NW 12.7 mph
(NW 20 kph)
- 10SM
16:58
Partly Cloudy
55°F / 13°C 34°F / 1°C 44% 30.04 in
(1017 mb)
NW 13.8 mph
(NW 22 kph)
- 10SM
15:58
Mostly Cloudy
55°F / 13°C 34°F / 1°C 44% 30.01 in
(1016 mb)
NW 15 mph
(NW 24 kph)
- 10SM
14:58
Partly Cloudy
55°F / 13°C 36°F / 2°C 47% 30.01 in
(1016 mb)
NW 15 mph
(NW 24 kph)
- 10SM
13:58
Partly Cloudy
55°F / 13°C 37°F / 3°C 51% 30.01 in
(1016 mb)
W 10.4 mph
(W 17 kph)
- 10SM
13:33
Mostly Cloudy
54°F / 12°C 39°F / 4°C 58% 30.01 in
(1016 mb)
NW 9.2 mph
(NW 15 kph)
- 10SM
12:58
Mostly Cloudy
52°F / 11°C 41°F / 5°C 67% 30.04 in
(1017 mb)
NNW 10.4 mph
(NNW 17 kph)
- 10SM
12:38
Partly Cloudy
52°F / 11°C 41°F / 5°C 67% 30.04 in
(1017 mb)
NW 10.4 mph
(NW 17 kph)
- 10SM
12:28
Mostly Cloudy
50°F / 10°C 41°F / 5°C 71% 30.04 in
(1017 mb)
NW 10.4 mph
(NW 17 kph)
- 10SM
11:58
Overcast
48°F / 9°C 41°F / 5°C 76% 30.04 in
(1017 mb)
NW 10.4 mph
(NW 17 kph)
0.00 in
(0.00 mm)
10SM
11:47
Overcast
48°F / 9°C 41°F / 5°C 76% 30.04 in
(1017 mb)
NW 8.1 mph
(NW 13 kph)
- 10SM
11:12
Mostly Cloudy
Drizzle
46°F / 8°C 41°F / 5°C 82% 30.06 in
(1018 mb)
WNW 9.2 mph
(WNW 15 kph)
- 10SM
11:10
Overcast
46°F / 8°C 41°F / 5°C 82% 30.06 in
(1018 mb)
W 8.1 mph
(W 13 kph)
- 10SM
10:58
Mostly Cloudy
Drizzle
46°F / 8°C 41°F / 5°C 82% 30.06 in
(1018 mb)
NW 15 mph
(NW 24 kph)
0.02 in
(0.51 mm)
10SM
09:58
Overcast
Light Rain
46°F / 8°C 41°F / 5°C 82% 30.04 in
(1017 mb)
NW 16.1 mph
(NW 26 kph)
0.02 in
(0.51 mm)
10SM
09:55
Overcast
Light Rain
46°F / 8°C 41°F / 5°C 82% 30.04 in
(1017 mb)
NW 18.4 mph
(NW 30 kph)
- 10SM
09:50
Overcast
Rain
48°F / 9°C 41°F / 5°C 76% 30.04 in
(1017 mb)
NW 21.9 mph
(NW 35 kph)
- 8SM
09:30
Overcast
Drizzle
50°F / 10°C 43°F / 6°C 76% 30.04 in
(1017 mb)
NW 18.4 mph
(NW 30 kph)
- 10SM
08:58
Mostly Cloudy
50°F / 10°C 43°F / 6°C 76% 30.01 in
(1016 mb)
NW 4.6 mph
(NW 7 kph)
- 10SM
07:58
Mostly Cloudy
48°F / 9°C 43°F / 6°C 82% 30.01 in
(1016 mb)
W 2.3 mph
(W 4 kph)
0.15 in
(3.81 mm)
10SM
07:55
Mostly Cloudy
48°F / 9°C 43°F / 6°C 82% 30.01 in
(1016 mb)
W 2.3 mph
(W 4 kph)
- 10SM
07:23
Overcast
Rain
46°F / 8°C 43°F / 6°C 87% 30.04 in
(1017 mb)
SSW 4.6 mph
(SSW 7 kph)
- 3SM
07:13
Overcast
Heavy Rain
48°F / 9°C 43°F / 6°C 82% 30.04 in
(1017 mb)
NW 4.6 mph
(NW 7 kph)
- 1 1/4SM
07:08
Overcast
Light Rain
48°F / 9°C 43°F / 6°C 82% 30.04 in
(1017 mb)
NW 10.4 mph
(NW 17 kph)
- 1 3/4SM
07:03
Overcast
Heavy Rain
48°F / 9°C 45°F / 7°C 87% 30.04 in
(1017 mb)
NNW 11.5 mph
(NNW 19 kph)
- 2 1/2SM
06:58
Overcast
Heavy Rain
50°F / 10°C 45°F / 7°C 82% 30.04 in
(1017 mb)
NNW 10.4 mph
(NNW 17 kph)
0.01 in
(0.25 mm)
4SM
06:48
Overcast
50°F / 10°C 45°F / 7°C 82% 30.01 in
(1016 mb)
W 5.8 mph
(W 9 kph)
- 10SM
06:38
Mostly Cloudy
48°F / 9°C 43°F / 6°C 82% 30.01 in
(1016 mb)
SSW 4.6 mph
(SSW 7 kph)
- 10SM
06:18
Clear
48°F / 9°C 43°F / 6°C 82% 30.01 in
(1016 mb)
SW 4.6 mph
(SW 7 kph)
- 10SM
06:08
Partly Cloudy
48°F / 9°C 45°F / 7°C 87% 30.01 in
(1016 mb)
SSE 3.5 mph
(SSE 6 kph)
- 7SM
05:58
Partly Cloudy
50°F / 10°C 45°F / 7°C 82% 30.01 in
(1016 mb)
SSE 2.3 mph
(SSE 4 kph)
- 10SM
04:58
Mostly Cloudy
52°F / 11°C 45°F / 7°C 77% 30.01 in
(1016 mb)
SSW 4.6 mph
(SSW 7 kph)
0.00 in
(0.00 mm)
10SM
04:37
Mostly Cloudy
52°F / 11°C 45°F / 7°C 77% 30.01 in
(1016 mb)
SSW 4.6 mph
(SSW 7 kph)
- 10SM
04:28
Mostly Cloudy
Light Rain
52°F / 11°C 45°F / 7°C 77% 30.01 in
(1016 mb)
SSW 3.5 mph
(SSW 6 kph)
- 10SM
04:18
Mostly Cloudy
52°F / 11°C 45°F / 7°C 77% 30.01 in
(1016 mb)
SW 4.6 mph
(SW 7 kph)
- 10SM
03:58
Partly Cloudy
52°F / 11°C 43°F / 6°C 72% 30.01 in
(1016 mb)
W 5.8 mph
(W 9 kph)
- 10SM
02:58
Overcast
54°F / 12°C 45°F / 7°C 72% 29.98 in
(1015 mb)
W 5.8 mph
(W 9 kph)
- 10SM
01:58
Mostly Cloudy
52°F / 11°C 43°F / 6°C 72% 30.01 in
(1016 mb)
SSW 3.5 mph
(SSW 6 kph)
- 10SM
00:58
Mostly Cloudy
50°F / 10°C 43°F / 6°C 76% 30.01 in
(1016 mb)
Calm - 10SM
Time Weather Temperature Dewpoint Humidity Pressure Winds Precip Visibility


Weather for websites

WeatherForYou.com, LLC is not responsible for any damages or problems caused by this service. Current weather conditions are obtained from the closest station including government and personal stations which may have varying degrees of accuracy. Weather forecasts are derived from the NOAA NDFD. Like all things, this site belongs to Jesus Christ... He just trusts me to maintain it. If you have any questions or comments email webmaster@weatherforyou.com

Copyright © 2015, WeatherForYou.com LLC. All rights reserved.